�������l�o���
Date,Time,MP-1(��Sv/h),MP-2(��Sv/h),MP-3(��Sv/h),MP-4(��Sv/h),MP-5(��Sv/h),MP-6(��Sv/h),MP-7(��Sv/h),MP-8(��Sv/h),����,����(m/s),���J
2018/09/10,00:00,0.788,1.174,0.832,1.483,1.068,0.462,0.810,0.768,�k��,5.3,��
2018/09/10,00:10,0.788,1.174,0.833,1.482,1.070,0.461,0.810,0.769,�k��,5.5,�L
2018/09/10,00:20,0.788,1.174,0.830,1.484,1.071,0.463,0.810,0.769,�k��,5.5,�L
2018/09/10,00:30,0.788,1.174,0.832,1.483,1.070,0.463,0.809,0.768,�k��,6.1,�L
2018/09/10,00:40,0.787,1.173,0.831,1.482,1.067,0.461,0.810,0.769,�k��,5.9,�L
2018/09/10,00:50,0.786,1.168,0.830,1.478,1.068,0.461,0.809,0.767,�k��,5.8,�L
2018/09/10,01:00,0.788,1.170,0.830,1.483,1.067,0.462,0.809,0.766,�k��,6.4,�L
2018/09/10,01:10,0.788,1.170,0.830,1.480,1.069,0.461,0.807,0.769,�k��,6.1,�L
2018/09/10,01:20,0.787,1.171,0.828,1.480,1.067,0.460,0.808,0.765,�k��,5.8,�L
2018/09/10,01:30,0.785,1.169,0.831,1.480,1.068,0.461,0.808,0.767,�k�k��,5.8,�L
2018/09/10,01:40,0.788,1.170,0.830,1.481,1.069,0.460,0.809,0.768,�k�k��,5.5,�L
2018/09/10,01:50,0.786,1.170,0.832,1.480,1.067,0.461,0.809,0.770,�k��,5.3,�L
2018/09/10,02:00,0.787,1.168,0.831,1.479,1.065,0.462,0.809,0.766,�k��,4.8,�L
2018/09/10,02:10,0.786,1.169,0.831,1.481,1.066,0.461,0.810,0.769,�k��,5.0,�L
2018/09/10,02:20,0.786,1.169,0.832,1.481,1.068,0.461,0.810,0.770,�k�k��,5.2,�L
2018/09/10,02:30,0.786,1.170,0.830,1.481,1.068,0.460,0.808,0.768,�k�k��,4.9,��
2018/09/10,02:40,0.787,1.170,0.830,1.482,1.068,0.462,0.809,0.767,�k��,5.1,��
2018/09/10,02:50,0.787,1.170,0.832,1.481,1.069,0.462,0.811,0.770,�k��,5.0,�L
2018/09/10,03:00,0.790,1.169,0.831,1.482,1.065,0.461,0.810,0.768,�k��,3.8,�L
2018/09/10,03:10,0.788,1.171,0.830,1.483,1.067,0.461,0.809,0.766,�k�k��,5.2,�L
2018/09/10,03:20,0.787,1.169,0.831,1.482,1.069,0.462,0.809,0.769,�k�k��,4.8,�L
2018/09/10,03:30,0.787,1.170,0.831,1.480,1.066,0.461,0.810,0.770,�k�k��,5.4,�L
2018/09/10,03:40,0.784,1.165,0.827,1.478,1.062,0.462,0.811,0.765,�k��,4.6,�L
2018/09/10,03:50,0.785,1.164,0.828,1.475,1.063,0.462,0.810,0.767,�k�k��,4.8,�L
2018/09/10,04:00,0.788,1.163,0.829,1.477,1.062,0.462,0.809,0.767,�k��,4.2,�L
2018/09/10,04:10,0.784,1.163,0.828,1.476,1.062,0.460,0.808,0.768,�k�k��,4.7,�L
2018/09/10,04:20,0.785,1.166,0.828,1.477,1.061,0.461,0.810,0.768,�k�k��,5.1,�L
2018/09/10,04:30,0.785,1.164,0.829,1.477,1.061,0.460,0.809,0.767,�k�k��,5.3,�L
2018/09/10,04:40,0.783,1.162,0.830,1.477,1.061,0.462,0.807,0.766,�k��,4.3,�L
2018/09/10,04:50,0.785,1.160,0.827,1.474,1.060,0.462,0.806,0.767,�k�k��,4.8,�L
2018/09/10,05:00,0.784,1.161,0.827,1.475,1.061,0.461,0.806,0.766,�k��,5.3,�L
2018/09/10,05:10,0.783,1.160,0.828,1.474,1.060,0.462,0.805,0.768,�k�k��,5.3,�L
2018/09/10,05:20,0.782,1.159,0.826,1.474,1.059,0.460,0.807,0.766,�k�k��,4.1,�L
2018/09/10,05:30,0.783,1.161,0.826,1.473,1.061,0.459,0.807,0.768,�k��,4.2,�L
2018/09/10,05:40,0.784,1.161,0.826,1.476,1.061,0.459,0.807,0.766,�k��,4.6,�L
2018/09/10,05:50,0.783,1.161,0.827,1.472,1.059,0.460,0.808,0.765,�k��,5.6,�L
2018/09/10,06:00,0.781,1.161,0.828,1.472,1.060,0.461,0.806,0.765,�k��,6.0,�L
2018/09/10,06:10,0.784,1.162,0.826,1.473,1.061,0.461,0.806,0.763,�k��,6.0,�L
2018/09/10,06:20,0.783,1.160,0.825,1.472,1.058,0.460,0.807,0.767,�k��,6.5,�L
2018/09/10,06:30,0.781,1.159,0.826,1.472,1.059,0.461,0.807,0.764,�k�k��,7.5,�L
2018/09/10,06:40,0.781,1.157,0.825,1.473,1.059,0.459,0.805,0.764,�k�k��,6.9,�L
2018/09/10,06:50,0.783,1.158,0.826,1.470,1.057,0.459,0.806,0.763,�k��,6.0,�L
2018/09/10,07:00,0.781,1.158,0.826,1.471,1.055,0.460,0.807,0.764,�k�k��,6.0,�L
2018/09/10,07:10,0.781,1.157,0.824,1.470,1.058,0.459,0.808,0.763,�k��,7.0,�L
2018/09/10,07:20,0.777,1.153,0.824,1.467,1.054,0.459,0.806,0.764,�k��,6.9,�L
2018/09/10,07:30,0.775,1.148,0.821,1.461,1.049,0.459,0.805,0.764,�k��,7.1,�L
2018/09/10,07:40,0.775,1.140,0.819,1.450,1.045,0.457,0.804,0.760,�k��,7.1,�L
2018/09/10,07:50,0.772,1.136,0.814,1.449,1.043,0.459,0.803,0.763,�k��,7.4,�L
2018/09/10,08:00,0.768,1.135,0.811,1.445,1.040,0.454,0.799,0.761,�k�k��,5.5,�L
2018/09/10,08:10,0.766,1.130,0.810,1.435,1.037,0.453,0.798,0.761,�k��,6.7,�L
2018/09/10,08:20,0.769,1.130,0.811,1.439,1.036,0.455,0.798,0.758,�k��,6.4,�L
2018/09/10,08:30,0.769,1.132,0.810,1.436,1.039,0.454,0.798,0.759,�k��,5.7,�L
2018/09/10,08:40,0.773,1.133,0.811,1.443,1.040,0.456,0.799,0.760,�k��,6.0,�L
2018/09/10,08:50,0.771,1.137,0.812,1.441,1.041,0.455,0.800,0.758,�k��,7.0,�L
2018/09/10,09:00,0.771,1.136,0.813,1.439,1.040,0.454,0.798,0.760,�k��,5.7,�L
2018/09/10,09:10,0.772,1.135,0.812,1.441,1.040,0.455,0.797,0.758,�k��,6.7,��
2018/09/10,09:20,0.773,1.139,0.815,1.443,1.041,0.456,0.799,0.760,�k��,6.7,��
2018/09/10,09:30,0.773,1.139,0.814,1.443,1.042,0.457,0.801,0.760,�k�k��,6.9,�L
2018/09/10,09:40,0.774,1.139,0.816,1.442,1.044,0.456,0.799,0.758,�k�k��,5.6,�L
2018/09/10,09:50,0.773,1.136,0.814,1.446,1.044,0.454,0.801,0.761,�k�k��,7.1,�L
2018/09/10,10:00,0.773,1.137,0.815,1.445,1.044,0.457,0.800,0.759,�k��,5.9,�L
2018/09/10,10:10,0.772,1.137,0.815,1.445,1.042,0.457,0.800,0.763,�k�k��,5.8,�L
2018/09/10,10:20,0.771,1.134,0.815,1.444,1.041,0.456,0.801,0.760,�k�k��,6.0,�L
2018/09/10,10:30,0.770,1.133,0.811,1.442,1.040,0.455,0.798,0.760,�k�k��,6.5,�L
2018/09/10,10:40,0.768,1.133,0.813,1.439,1.042,0.456,0.798,0.759,�k�k��,5.7,�L
2018/09/10,10:50,0.769,1.133,0.813,1.441,1.041,0.456,0.800,0.758,�k�k��,6.4,�L
2018/09/10,11:00,0.772,1.135,0.812,1.443,1.042,0.456,0.799,0.758,�k�k��,5.3,�L
2018/09/10,11:10,0.772,1.136,0.813,1.444,1.045,0.455,0.799,0.760,�k��,5.6,�L
2018/09/10,11:20,0.772,1.136,0.812,1.445,1.044,0.454,0.800,0.760,�k�k��,4.9,�L
2018/09/10,11:30,0.772,1.139,0.814,1.445,1.046,0.457,0.799,0.759,�k��,4.9,�L
2018/09/10,11:40,0.774,1.138,0.816,1.446,1.046,0.457,0.800,0.760,�k�k��,4.9,�L
2018/09/10,11:50,0.772,1.142,0.817,1.447,1.048,0.456,0.802,0.760,�k�k��,4.7,��
2018/09/10,12:00,0.775,1.139,0.817,1.446,1.048,0.456,0.802,0.761,�k�k��,4.5,�L
2018/09/10,12:10,0.772,1.142,0.818,1.445,1.045,0.457,0.803,0.759,�k�k��,4.3,�L
2018/09/10,12:20,0.775,1.141,0.816,1.447,1.047,0.457,0.802,0.759,�k�k��,5.2,�L
2018/09/10,12:30,0.775,1.141,0.817,1.449,1.048,0.455,0.802,0.758,�k�k��,4.7,��
2018/09/10,12:40,0.774,1.141,0.816,1.449,1.047,0.457,0.802,0.761,�k�k��,4.6,��
2018/09/10,12:50,0.774,1.142,0.817,1.449,1.045,0.457,0.802,0.761,�k,4.4,�L
2018/09/10,13:00,0.774,1.142,0.817,1.451,1.047,0.459,0.802,0.760,�k�k��,4.3,�L
2018/09/10,13:10,0.775,1.140,0.817,1.452,1.049,0.457,0.801,0.759,�k�k��,3.7,�L
2018/09/10,13:20,0.773,1.144,0.819,1.451,1.050,0.457,0.802,0.760,�k�k��,4.9,��
2018/09/10,13:30,0.776,1.144,0.817,1.451,1.049,0.459,0.802,0.762,�k�k��,4.7,��
2018/09/10,13:40,0.773,1.146,0.818,1.450,1.049,0.459,0.802,0.762,�k�k��,5.1,��
2018/09/10,13:50,0.775,1.139,0.820,1.453,1.052,0.458,0.803,0.760,�k,4.0,��
2018/09/10,14:00,0.775,1.145,0.819,1.454,1.051,0.458,0.802,0.762,�k�k��,5.0,�L
2018/09/10,14:10,0.775,1.144,0.819,1.451,1.049,0.458,0.804,0.762,�k�k��,5.6,��
2018/09/10,14:20,0.775,1.145,0.818,1.455,1.048,0.457,0.803,0.761,�k�k��,5.4,��
2018/09/10,14:30,0.776,1.143,0.818,1.454,1.050,0.458,0.803,0.762,�k�k��,7.0,��
2018/09/10,14:40,0.775,1.144,0.817,1.451,1.049,0.458,0.802,0.762,�k�k��,7.7,�L
2018/09/10,14:50,0.773,1.144,0.815,1.452,1.047,0.457,0.802,0.761,�k,4.9,�L
2018/09/10,15:00,0.774,1.140,0.812,1.444,1.039,0.458,0.801,0.760,�k�k��,4.3,�L
2018/09/10,15:10,0.770,1.132,0.807,1.436,1.033,0.455,0.795,0.755,���k��,3.4,�L
2018/09/10,15:20,0.763,1.128,0.808,1.425,1.030,0.452,0.787,0.746,���k��,4.7,�L
2018/09/10,15:30,0.760,1.119,0.805,1.419,1.027,0.452,0.787,0.749,�k,5.2,�L
2018/09/10,15:40,0.764,1.119,0.806,1.418,1.025,0.453,0.787,0.749,�k,2.3,�L
2018/09/10,15:50,0.761,1.117,0.804,1.416,1.025,0.454,0.787,0.749,�k,5.4,�L
2018/09/10,16:00,0.765,1.119,0.806,1.417,1.023,0.455,0.789,0.751,�k,4.4,�L
2018/09/10,16:10,0.767,1.125,0.808,1.421,1.029,0.454,0.791,0.751,�k,4.6,�L
2018/09/10,16:20,0.768,1.121,0.805,1.422,1.026,0.454,0.791,0.752,�k�k��,3.3,�L
2018/09/10,16:30,0.766,1.122,0.806,1.417,1.025,0.455,0.789,0.753,�k,3.9,�L
2018/09/10,16:40,0.766,1.121,0.806,1.419,1.025,0.456,0.788,0.751,�k�k��,4.0,�L
2018/09/10,16:50,0.768,1.128,0.807,1.421,1.031,0.456,0.791,0.751,�k,5.8,�L
2018/09/10,17:00,0.768,1.127,0.808,1.424,1.030,0.455,0.792,0.752,�k,5.4,�L
2018/09/10,17:10,0.767,1.127,0.808,1.427,1.029,0.455,0.792,0.752,�k�k��,5.9,�L
2018/09/10,17:20,0.770,1.129,0.808,1.428,1.030,0.456,0.791,0.753,�k�k��,4.9,�L
2018/09/10,17:30,0.769,1.130,0.810,1.430,1.031,0.454,0.791,0.753,�k�k��,5.0,�L
2018/09/10,17:40,0.770,1.134,0.810,1.430,1.028,0.454,0.789,0.752,�k,4.8,�L
2018/09/10,17:50,0.770,1.132,0.810,1.429,1.032,0.455,0.791,0.753,�k�k��,4.8,�L
2018/09/10,18:00,0.769,1.131,0.810,1.429,1.031,0.455,0.791,0.753,�k�k��,5.0,�L
2018/09/10,18:10,0.769,1.130,0.808,1.432,1.029,0.456,0.792,0.753,�k�k��,5.4,�L
2018/09/10,18:20,0.767,1.130,0.808,1.427,1.031,0.455,0.789,0.751,�k�k��,5.0,�L
2018/09/10,18:30,0.766,1.131,0.807,1.428,1.028,0.454,0.790,0.751,�k�k��,5.1,�L
2018/09/10,18:40,0.765,1.126,0.808,1.425,1.028,0.455,0.790,0.750,�k�k��,5.8,�L
2018/09/10,18:50,0.763,1.127,0.805,1.425,1.028,0.453,0.791,0.749,�k�k��,4.5,�L
2018/09/10,19:00,0.763,1.124,0.804,1.423,1.022,0.456,0.789,0.750,�k,5.3,�L
2018/09/10,19:10,0.764,1.123,0.804,1.423,1.023,0.454,0.788,0.748,�k,3.9,�L
2018/09/10,19:20,0.764,1.123,0.804,1.421,1.026,0.454,0.790,0.750,�k�k��,7.4,�L
2018/09/10,19:30,0.765,1.124,0.805,1.421,1.022,0.455,0.791,0.751,�k�k��,8.6,�L
2018/09/10,19:40,0.765,1.123,0.804,1.421,1.024,0.454,0.791,0.752,�k�k��,7.3,�L
2018/09/10,19:50,0.765,1.127,0.804,1.421,1.022,0.454,0.791,0.749,�k�k��,8.0,�L
2018/09/10,20:00,0.765,1.123,0.803,1.421,1.021,0.454,0.790,0.752,�k�k��,7.5,�L
2018/09/10,20:10,0.765,1.124,0.804,1.421,1.024,0.454,0.790,0.751,�k,8.1,�L
2018/09/10,20:20,0.765,1.125,0.804,1.423,1.025,0.453,0.790,0.751,�k�k��,8.1,�L
2018/09/10,20:30,0.766,1.129,0.804,1.424,1.024,0.451,0.792,0.752,�k�k��,8.9,�L
2018/09/10,20:40,0.767,1.128,0.806,1.428,1.027,0.453,0.791,0.753,�k�k��,9.0,�L
2018/09/10,20:50,0.769,1.130,0.804,1.426,1.028,0.455,0.792,0.752,�k�k��,8.8,�L
2018/09/10,21:00,0.769,1.132,0.808,1.426,1.027,0.455,0.793,0.753,�k�k��,7.8,��
2018/09/10,21:10,0.767,1.133,0.808,1.428,1.026,0.454,0.793,0.754,�k�k��,6.5,��
2018/09/10,21:20,0.769,1.131,0.808,1.430,1.027,0.453,0.795,0.753,�k,5.7,�L
2018/09/10,21:30,0.771,1.132,0.809,1.433,1.029,0.453,0.792,0.754,�k�k��,7.1,�L
2018/09/10,21:40,0.769,1.133,0.810,1.431,1.027,0.455,0.792,0.754,�k�k��,7.0,�L
2018/09/10,21:50,0.769,1.131,0.808,1.431,1.026,0.457,0.791,0.753,�k�k��,6.6,�L
2018/09/10,22:00,0.770,1.132,0.808,1.427,1.026,0.456,0.792,0.753,�k,7.8,�L
2018/09/10,22:10,0.771,1.133,0.807,1.432,1.027,0.457,0.792,0.754,�k�k��,8.8,�L
2018/09/10,22:20,0.770,1.134,0.809,1.429,1.027,0.457,0.792,0.752,�k�k��,8.1,�L
2018/09/10,22:30,0.769,1.135,0.807,1.430,1.027,0.457,0.793,0.755,�k�k��,8.6,�L
2018/09/10,22:40,0.770,1.133,0.807,1.430,1.029,0.457,0.792,0.752,�k�k��,7.7,�L
2018/09/10,22:50,0.769,1.132,0.808,1.429,1.028,0.459,0.793,0.754,�k,7.4,�L
2018/09/10,23:00,0.770,1.132,0.808,1.426,1.028,0.459,0.793,0.754,�k,10.0,�L
2018/09/10,23:10,0.772,1.132,0.806,1.428,1.027,0.457,0.794,0.753,�k,9.3,�L
2018/09/10,23:20,0.771,1.132,0.808,1.427,1.026,0.459,0.793,0.752,�k,6.8,�L
2018/09/10,23:30,0.772,1.134,0.808,1.428,1.027,0.458,0.793,0.753,�k,7.5,�L
2018/09/10,23:40,0.769,1.132,0.809,1.428,1.029,0.458,0.793,0.752,�k,8.4,�L
2018/09/10,23:50,0.771,1.135,0.808,1.430,1.026,0.457,0.792,0.752,�k,8.8,�L
